Flag for Spain Weather past 2 weeks in Bilbao, Spain

Now
66 °F

Partly sunny.


Feels Like: 66 °F
Forecast: 58 / 85 °F
Wind: No wind

Location: Bilbao / Sondica

Current Time: Jul 22, 2014 at 10:01:41 AM

Latest Report: Jul 22, 2014 at 9:30 AM


Visibility: N/A

Pressure: 30.18 "Hg

Humidity: 83%

Dew point: 61 °F

Location of BilbaoLocation

Historic Weather in Bilbao — Graph

°F

Bilbao temperature yesterday

Maximum temperature yesterday: 75 °F (at 12:30 PM)
Minimum temperature yesterday: 64 °F (at 5:30 AM)
Average temperature yesterday: 71 °F

Past Weeks' High & Low Weather Summary

 TemperatureHumidityPressure
High99 °F (Jul 17, 1:30 PM)100% (Jul 11, 6:30 AM)30.27 "Hg (Jul 11, 6:30 AM)
Low57 °F (Jul 10, 5:00 AM)27% (Jul 17, 1:30 PM)29.74 "Hg (Jul 19, 3:30 PM)
Average70 °F74%30.09 "Hg
* Reported Jul 7 9:00 AM — Jul 22 9:00 AM, Bilbao, Weather by CustomWeather, © 2014

Note: Actual official high and low records may vary slightly from our data, if they occured in-between our weather recording intervals... More about our weather records

Advertising

Bilbao weather history for previous 24 hours

 ConditionsComfort  
Time TempWeatherWind HumidityBarometerVisibility
9:00 AM
Jul 22
64 °FPartly sunny.2 mph88%30.18 "HgN/A
8:30 AM64 °FScattered clouds.2 mph88%30.18 "HgN/A
8:00 AM64 °FScattered clouds.No wind88%30.18 "HgN/A
7:30 AM63 °FPassing clouds.1 mph94%30.18 "HgN/A
7:00 AM61 °FPartly cloudy.1 mph94%30.18 "HgN/A
6:30 AM61 °FPassing clouds.1 mph94%30.18 "HgN/A
6:00 AM61 °FPassing clouds.2 mph94%30.18 "HgN/A
5:30 AM61 °FPassing clouds.1 mph94%30.18 "HgN/A
5:00 AM61 °FPassing clouds.1 mph94%30.18 "HgN/A
12:00 AM64 °FPassing clouds.No wind88%30.24 "HgN/A
11:30 PM
Jul 21
66 °FPassing clouds.No wind88%30.24 "HgN/A
10:30 PM68 °FPassing clouds.2 mph83%30.21 "HgN/A
10:00 PM68 °FPassing clouds.1 mph83%30.21 "HgN/A
9:30 PM70 °FPassing clouds.5 mph78%30.21 "HgN/A
9:00 PM72 °FPassing clouds.7 mph69%30.21 "HgN/A
8:30 PM73 °FPassing clouds.8 mph65%30.21 "HgN/A
8:00 PM73 °FScattered clouds.6 mph61%30.21 "HgN/A
7:30 PM75 °FScattered clouds.8 mph57%30.21 "HgN/A
7:00 PM75 °FScattered clouds.8 mph61%30.21 "HgN/A
6:30 PM73 °FScattered clouds.6 mph61%30.21 "HgN/A
6:00 PM73 °FScattered clouds.8 mph65%30.21 "HgN/A
5:30 PM73 °FScattered clouds.9 mph65%30.21 "HgN/A
5:00 PM73 °FScattered clouds.9 mph65%30.21 "HgN/A
4:30 PM75 °FScattered clouds.9 mph61%30.21 "HgN/A
4:00 PM75 °FScattered clouds.8 mph61%30.21 "HgN/A
3:30 PM75 °FScattered clouds.9 mph54%30.24 "HgN/A
3:00 PM75 °FScattered clouds.10 mph54%30.24 "HgN/A
2:30 PM75 °FScattered clouds.12 mph54%30.24 "HgN/A
2:00 PM75 °FScattered clouds.10 mph57%30.24 "HgN/A
1:30 PM75 °FScattered clouds.10 mph57%30.24 "HgN/A
1:00 PM75 °FScattered clouds.12 mph57%30.24 "HgN/A
12:30 PM75 °FScattered clouds.13 mph57%30.24 "HgN/A
12:00 PM72 °FScattered clouds.12 mph69%30.24 "HgN/A
11:30 AM72 °FScattered clouds.10 mph69%30.24 "HgN/A
11:00 AM70 °FScattered clouds.12 mph73%30.24 "HgN/A
10:30 AM70 °FScattered clouds.10 mph73%30.24 "HgN/A
10:00 AM68 °FBroken clouds.7 mph78%30.24 "HgN/A
Weather by CustomWeather, © 2014

See weather overviewHow to use our weather pages